| time (UTC) | temp F | wind direction | speed knots | gust knots | rain 1hr in | rain 24hr in | rain mn in | humidity % | barometer mb |
| 20260506191544 | 70 | 311 | 4.3 | 10.4 | 0.00 | 0.00 | 0.00 | 63 | 1018.1 |
| 20260506191043 | 70 | 312 | 3.5 | 10.4 | 0.00 | 0.00 | 0.00 | 62 | 1018.2 |
| 20260506190543 | 70 | 289 | 5.2 | 12.2 | 0.00 | 0.00 | 0.00 | 63 | 1018.2 |
| 20260506190030 | 70 | 292 | 5.2 | 12.2 | 0.00 | 0.00 | 0.00 | 62 | 1018.2 |
| 20260506185530 | 70 | 275 | 6.1 | 12.2 | 0.00 | 0.00 | 0.00 | 62 | 1018.2 |
| 20260506185028 | 70 | 323 | 4.3 | 9.6 | 0.00 | 0.00 | 0.00 | 63 | 1018.3 |
| 20260506184527 | 70 | 299 | 2.6 | 9.6 | 0.00 | 0.00 | 0.00 | 63 | 1018.3 |
| 20260506184026 | 70 | 339 | 4.3 | 9.6 | 0.00 | 0.00 | 0.00 | 63 | 1018.4 |
| 20260506183525 | 70 | 289 | 3.5 | 8.7 | 0.00 | 0.00 | 0.00 | 63 | 1018.4 |
| 20260506183023 | 70 | 314 | 4.3 | 10.4 | 0.00 | 0.00 | 0.00 | 63 | 1018.4 |
| 20260506182522 | 69 | 298 | 6.1 | 11.3 | 0.00 | 0.00 | 0.00 | 63 | 1018.4 |
| 20260506182023 | 69 | 306 | 5.2 | 12.2 | 0.00 | 0.00 | 0.00 | 64 | 1018.5 |
| 20260506181520 | 69 | 311 | 6.1 | 12.2 | 0.00 | 0.00 | 0.00 | 64 | 1018.5 |
| 20260506181020 | 68 | 316 | 4.3 | 10.4 | 0.00 | 0.00 | 0.00 | 65 | 1018.5 |
| 20260506180519 | 68 | 308 | 3.5 | 8.7 | 0.00 | 0.00 | 0.00 | 65 | 1018.5 |
| 20260506180010 | 68 | 310 | 5.2 | 8.7 | 0.00 | 0.00 | 0.00 | 65 | 1018.6 |
| 20260506175508 | 68 | 303 | 3.5 | 7.8 | 0.00 | 0.00 | 0.00 | 65 | 1018.6 |
| 20260506175007 | 68 | 270 | 2.6 | 9.6 | 0.00 | 0.00 | 0.00 | 66 | 1018.7 |
| 20260506174506 | 68 | 310 | 2.6 | 8.7 | 0.00 | 0.00 | 0.00 | 67 | 1018.6 |
| 20260506174005 | 67 | 309 | 2.6 | 8.7 | 0.00 | 0.00 | 0.00 | 67 | 1018.6 |
| 20260506173505 | 67 | 304 | 1.7 | 8.7 | 0.00 | 0.00 | 0.00 | 67 | 1018.7 |
| 20260506173003 | 67 | 276 | 2.6 | 7.8 | 0.00 | 0.00 | 0.00 | 67 | 1018.6 |
| 20260506172502 | 67 | 296 | 1.7 | 8.7 | 0.00 | 0.00 | 0.00 | 68 | 1018.6 |
| 20260506172059 | 67 | 266 | 5.2 | 9.6 | 0.00 | 0.00 | 0.00 | 68 | 1018.7 |
| 20260506171604 | 67 | 283 | 4.3 | 9.6 | 0.00 | 0.00 | 0.00 | 68 | 1018.7 |
| 20260506171058 | 67 | 283 | 3.5 | 7.8 | 0.00 | 0.00 | 0.00 | 67 | 1018.7 |
| 20260506170556 | 68 | 272 | 1.7 | 7.0 | 0.00 | 0.00 | 0.00 | 68 | 1018.7 |
| 20260506165547 | 68 | 290 | 2.6 | 7.8 | 0.00 | 0.00 | 0.00 | 68 | 1018.6 |
| 20260506165046 | 68 | 327 | 1.7 | 7.8 | 0.00 | 0.00 | 0.00 | 68 | 1018.6 |
| 20260506164545 | 67 | 332 | 3.5 | 7.0 | 0.00 | 0.00 | 0.00 | 68 | 1018.5 |
| 20260506164047 | 67 | 332 | 0.0 | 5.2 | 0.00 | 0.00 | 0.00 | 68 | 1018.6 |
| 20260506163544 | 66 | 359 | 0.0 | 4.3 | 0.00 | 0.00 | 0.00 | 68 | 1018.5 |
| 20260506163057 | 66 | 330 | 0.9 | 3.5 | 0.00 | 0.00 | 0.00 | 69 | 1018.5 |
| 20260506162542 | 66 | 17 | 0.0 | 3.5 | 0.00 | 0.00 | 0.00 | 71 | 1018.6 |
| 20260506162041 | 65 | 35 | 0.0 | 3.5 | 0.00 | 0.00 | 0.00 | 70 | 1018.7 |
| 20260506161537 | 64 | 35 | 0.0 | 5.2 | 0.00 | 0.00 | 0.00 | 72 | 1018.7 |
| 20260506161037 | 64 | 351 | 0.9 | 5.2 | 0.00 | 0.00 | 0.00 | 72 | 1018.8 |
| 20260506160533 | 63 | 347 | 0.9 | 4.3 | 0.00 | 0.00 | 0.00 | 73 | 1018.7 |
| 20260506160025 | 63 | 298 | 0.0 | 5.2 | 0.00 | 0.00 | 0.00 | 73 | 1018.8 |
| 20260506155523 | 62 | 23 | 0.9 | 5.2 | 0.00 | 0.00 | 0.00 | 74 | 1018.8 |
| 20260506155022 | 62 | 351 | 1.7 | 4.3 | 0.00 | 0.00 | 0.00 | 75 | 1018.8 |
| 20260506154520 | 62 | 6 | 0.9 | 3.5 | 0.00 | 0.00 | 0.00 | 75 | 1018.8 |
| 20260506154021 | 62 | 19 | 0.0 | 2.6 | 0.00 | 0.00 | 0.00 | 76 | 1018.8 |
| 20260506153516 | 61 | 22 | 0.0 | 1.7 | 0.00 | 0.00 | 0.00 | 77 | 1019.0 |
| 20260506153015 | 61 | 6 | 0.0 | 0.0 | 0.00 | 0.00 | 0.00 | 78 | 1018.9 |
| 20260506152514 | 60 | 243 | 0.0 | 0.0 | 0.00 | 0.00 | 0.00 | 79 | 1019.0 |
| 20260506152014 | 59 | 242 | 0.0 | 3.5 | 0.00 | 0.00 | 0.00 | 80 | 1019.1 |
| 20260506151511 | 59 | 314 | 0.9 | 3.5 | 0.00 | 0.00 | 0.00 | 80 | 1018.9 |
| 20260506151010 | 58 | 210 | 0.0 | 1.7 | 0.00 | 0.00 | 0.00 | 81 | 1019.0 |
| 20260506150509 | 58 | 200 | 0.0 | 1.7 | 0.00 | 0.00 | 0.00 | 82 | 1019.1 |
| 20260506150101 | 57 | 135 | 0.0 | 0.9 | 0.00 | 0.00 | 0.00 | 82 | 1019.0 |
| 20260506145554 | 56 | 135 | 0.0 | 1.7 | 0.00 | 0.00 | 0.00 | 83 | 1019.1 |
| 20260506145054 | 56 | 135 | 0.0 | 2.6 | 0.00 | 0.00 | 0.00 | 83 | 1018.9 |
| 20260506144553 | 55 | 173 | 0.9 | 3.5 | 0.00 | 0.00 | 0.00 | 84 | 1019.0 |
| 20260506144051 | 55 | 171 | 0.9 | 3.5 | 0.00 | 0.00 | 0.00 | 84 | 1018.9 |
| 20260506143549 | 54 | 171 | 0.0 | 2.6 | 0.00 | 0.00 | 0.00 | 85 | 1019.0 |
| 20260506143101 | 54 | 76 | 0.9 | 2.6 | 0.00 | 0.00 | 0.00 | 86 | 1018.9 |
| 20260506142547 | 53 | 89 | 0.0 | 1.7 | 0.00 | 0.00 | 0.00 | 86 | 1019.0 |
| 20260506142045 | 53 | 88 | 0.0 | 2.6 | 0.00 | 0.00 | 0.00 | 87 | 1018.9 |
| 20260506141544 | 52 | 88 | 0.0 | 2.6 | 0.00 | 0.00 | 0.00 | 87 | 1018.8 |
| 20260506141046 | 52 | 167 | 0.9 | 2.6 | 0.00 | 0.00 | 0.00 | 87 | 1018.8 |
| 20260506140542 | 51 | 162 | 0.9 | 2.6 | 0.00 | 0.00 | 0.00 | 87 | 1018.8 |
| 20260506140015 | 50 | 215 | 0.0 | 0.9 | 0.00 | 0.00 | 0.00 | 87 | 1018.7 |
| 20260506135512 | 49 | 215 | 0.0 | 0.9 | 0.00 | 0.00 | 0.00 | 87 | 1018.7 |
| 20260506135013 | 49 | 78 | 0.0 | 0.0 | 0.00 | 0.00 | 0.00 | 86 | 1018.6 |
| 20260506134510 | 49 | 78 | 0.0 | 0.0 | 0.00 | 0.00 | 0.00 | 86 | 1018.6 |
| 20260506134011 | 49 | 78 | 0.0 | 0.0 | 0.00 | 0.00 | 0.00 | 86 | 1018.6 |
| 20260506133508 | 49 | 78 | 0.0 | 1.7 | 0.00 | 0.00 | 0.00 | 86 | 1018.7 |
| 20260506133009 | 49 | 78 | 0.0 | 2.6 | 0.00 | 0.00 | 0.00 | 86 | 1018.6 |
| 20260506132506 | 49 | 78 | 0.0 | 3.5 | 0.00 | 0.00 | 0.00 | 86 | 1018.5 |
| 20260506132006 | 49 | 134 | 0.0 | 2.6 | 0.00 | 0.00 | 0.00 | 86 | 1018.3 |
| 20260506131508 | 49 | 139 | 0.0 | 0.0 | 0.00 | 0.00 | 0.00 | 86 | 1018.3 |
| 20260506131004 | 49 | 139 | 0.0 | 0.0 | 0.00 | 0.00 | 0.00 | 86 | 1018.2 |
| 20260506130509 | 49 | 139 | 0.0 | 0.9 | 0.00 | 0.00 | 0.00 | 86 | 1018.2 |
| 20260506130005 | 49 | 217 | 0.0 | 0.9 | 0.00 | 0.00 | 0.00 | 86 | 1018.1 |
| 20260506125504 | 49 | 109 | 0.0 | 2.6 | 0.00 | 0.00 | 0.00 | 86 | 1018.0 |
| 20260506125004 | 48 | 109 | 0.0 | 2.6 | 0.00 | 0.00 | 0.00 | 86 | 1017.9 |
| 20260506124504 | 49 | 109 | 0.0 | 2.6 | 0.00 | 0.00 | 0.00 | 86 | 1018.0 |
| 20260506124004 | 49 | 109 | 0.0 | 2.6 | 0.00 | 0.00 | 0.00 | 86 | 1018.0 |
| 20260506123504 | 49 | 108 | 0.0 | 2.6 | 0.00 | 0.00 | 0.00 | 86 | 1017.9 |
| 20260506123003 | 49 | 108 | 0.0 | 3.5 | 0.00 | 0.00 | 0.00 | 86 | 1017.9 |
| 20260506122502 | 48 | 108 | 0.9 | 3.5 | 0.00 | 0.00 | 0.00 | 85 | 1017.9 |
| 20260506122001 | 48 | 108 | 0.0 | 2.6 | 0.00 | 0.00 | 0.00 | 85 | 1018.0 |
| 20260506121502 | 49 | 108 | 0.0 | 2.6 | 0.00 | 0.00 | 0.00 | 85 | 1018.2 |
| 20260506121001 | 49 | 108 | 0.0 | 3.5 | 0.00 | 0.00 | 0.00 | 85 | 1018.1 |
| 20260506120501 | 49 | 108 | 0.0 | 3.5 | 0.00 | 0.00 | 0.00 | 85 | 1018.0 |
| 20260506115601 | 49 | 108 | 0.0 | 3.5 | 0.00 | 0.00 | 0.00 | 85 | 1018.2 |
| 20260506115100 | 49 | 108 | 0.9 | 3.5 | 0.00 | 0.00 | 0.00 | 85 | 1018.1 |
| 20260506114607 | 49 | 108 | 1.7 | 3.5 | 0.00 | 0.00 | 0.00 | 85 | 1018.2 |
| 20260506114101 | 49 | 109 | 0.9 | 3.5 | 0.00 | 0.00 | 0.00 | 85 | 1018.2 |
| 20260506113558 | 49 | 109 | 0.9 | 2.6 | 0.00 | 0.00 | 0.00 | 85 | 1018.3 |
| 20260506113057 | 49 | 109 | 0.9 | 2.6 | 0.00 | 0.00 | 0.00 | 85 | 1018.3 |
| 20260506112557 | 49 | 109 | 0.9 | 2.6 | 0.00 | 0.00 | 0.00 | 85 | 1018.3 |
| 20260506112055 | 49 | 109 | 0.0 | 1.7 | 0.00 | 0.00 | 0.00 | 85 | 1018.3 |
| 20260506111555 | 49 | 109 | 0.0 | 1.7 | 0.00 | 0.00 | 0.00 | 84 | 1018.3 |
| 20260506111055 | 49 | 109 | 0.0 | 1.7 | 0.00 | 0.00 | 0.00 | 85 | 1018.2 |
| 20260506110554 | 49 | 109 | 0.0 | 0.0 | 0.00 | 0.00 | 0.00 | 85 | 1018.2 |
| 20260506110100 | 49 | 109 | 0.0 | 0.0 | 0.00 | 0.00 | 0.00 | 85 | 1018.1 |
| 20260506105556 | 50 | 109 | 0.0 | 1.7 | 0.00 | 0.00 | 0.00 | 85 | 1018.2 |
| 20260506105052 | 50 | 109 | 0.0 | 2.6 | 0.00 | 0.00 | 0.00 | 85 | 1018.2 |
| 20260506104551 | 50 | 109 | 0.0 | 2.6 | 0.00 | 0.00 | 0.00 | 85 | 1018.2 |
| 20260506104050 | 50 | 109 | 0.0 | 0.0 | 0.00 | 0.00 | 0.00 | 85 | 1018.1 |
| 20260506103552 | 50 | 109 | 0.0 | 0.0 | 0.00 | 0.00 | 0.00 | 85 | 1018.2 |
| 20260506103049 | 50 | 109 | 0.0 | 0.0 | 0.00 | 0.00 | 0.00 | 85 | 1018.1 |
| 20260506102549 | 50 | 109 | 0.0 | 0.0 | 0.00 | 0.00 | 0.00 | 85 | 1018.1 |
| 20260506102049 | 50 | 109 | 0.0 | 0.9 | 0.00 | 0.00 | 0.00 | 85 | 1018.1 |
| 20260506101554 | 51 | 109 | 0.0 | 3.5 | 0.00 | 0.00 | 0.00 | 85 | 1018.2 |
| 20260506101051 | 51 | 109 | 0.9 | 5.2 | 0.00 | 0.00 | 0.00 | 85 | 1018.0 |
| 20260506100551 | 50 | 111 | 1.7 | 5.2 | 0.00 | 0.00 | 0.00 | 85 | 1017.9 |
| 20260506100048 | 50 | 102 | 1.7 | 5.2 | 0.00 | 0.00 | 0.00 | 85 | 1018.0 |
| 20260506095552 | 50 | 103 | 1.7 | 5.2 | 0.00 | 0.00 | 0.00 | 85 | 1018.0 |
| 20260506095047 | 50 | 90 | 2.6 | 4.3 | 0.00 | 0.00 | 0.00 | 85 | 1018.1 |
| 20260506094606 | 51 | 96 | 0.0 | 3.5 | 0.00 | 0.00 | 0.00 | 85 | 1017.9 |
| 20260506094045 | 51 | 96 | 0.0 | 2.6 | 0.00 | 0.00 | 0.00 | 85 | 1018.0 |
| 20260506093546 | 51 | 96 | 0.0 | 2.6 | 0.00 | 0.00 | 0.00 | 85 | 1018.0 |
| 20260506093052 | 51 | 96 | 0.9 | 5.2 | 0.00 | 0.00 | 0.00 | 85 | 1018.1 |
| 20260506092545 | 51 | 96 | 1.7 | 6.1 | 0.00 | 0.00 | 0.00 | 85 | 1018.1 |
| 20260506092045 | 51 | 99 | 2.6 | 6.1 | 0.00 | 0.00 | 0.00 | 85 | 1018.1 |
| 20260506091544 | 51 | 93 | 2.6 | 5.2 | 0.00 | 0.00 | 0.00 | 85 | 1018.0 |
| 20260506091043 | 51 | 93 | 2.6 | 5.2 | 0.00 | 0.00 | 0.00 | 85 | 1018.2 |
| 20260506090542 | 51 | 89 | 2.6 | 4.3 | 0.00 | 0.00 | 0.00 | 84 | 1018.2 |
| 20260506090041 | 51 | 94 | 0.9 | 2.6 | 0.00 | 0.00 | 0.00 | 84 | 1018.3 |
| 20260506085539 | 51 | 94 | 0.0 | 3.5 | 0.00 | 0.00 | 0.00 | 84 | 1018.3 |
| 20260506085040 | 51 | 94 | 1.7 | 3.5 | 0.00 | 0.00 | 0.00 | 84 | 1018.3 |
| 20260506084539 | 51 | 94 | 0.0 | 1.7 | 0.00 | 0.00 | 0.00 | 84 | 1018.3 |
| 20260506084041 | 51 | 94 | 0.0 | 2.6 | 0.00 | 0.00 | 0.00 | 84 | 1018.4 |
| 20260506083539 | 52 | 94 | 0.9 | 2.6 | 0.00 | 0.00 | 0.00 | 84 | 1018.4 |
| 20260506083038 | 52 | 94 | 0.9 | 2.6 | 0.00 | 0.00 | 0.00 | 84 | 1018.4 |
| 20260506082537 | 52 | 94 | 0.0 | 3.5 | 0.00 | 0.00 | 0.00 | 84 | 1018.4 |
| 20260506082036 | 52 | 94 | 0.9 | 3.5 | 0.00 | 0.00 | 0.00 | 84 | 1018.5 |
| 20260506081537 | 52 | 94 | 0.9 | 3.5 | 0.00 | 0.00 | 0.00 | 84 | 1018.4 |
| 20260506081035 | 52 | 94 | 1.7 | 3.5 | 0.00 | 0.00 | 0.00 | 84 | 1018.5 |
| 20260506080535 | 52 | 94 | 1.7 | 3.5 | 0.00 | 0.00 | 0.00 | 84 | 1018.5 |
| 20260506073038 | 52 | 64 | 0.9 | 2.6 | 0.00 | 0.00 | 0.00 | 84 | 1018.4 |
| 20260506072532 | 53 | 63 | 0.0 | 2.6 | 0.00 | 0.00 | 0.00 | 83 | 1018.4 |
| 20260506072032 | 53 | 62 | 0.9 | 2.6 | 0.00 | 0.00 | 0.00 | 83 | 1018.3 |
| 20260506071534 | 53 | 60 | 0.0 | 2.6 | 0.00 | 0.00 | 0.00 | 83 | 1018.4 |
| 20260506071031 | 53 | 50 | 0.9 | 2.6 | 0.00 | 0.00 | 0.00 | 83 | 1018.3 |
| 20260506070527 | 53 | 46 | 0.0 | 0.0 | 0.00 | 0.00 | 0.00 | 83 | 1018.2 |
| 20260506062025 | 54 | 46 | 0.0 | 0.0 | 0.00 | 0.00 | 0.00 | 82 | 1018.0 |
| 20260506061531 | 54 | 46 | 0.0 | 0.0 | 0.00 | 0.00 | 0.00 | 82 | 1017.9 |
| 20260506061026 | 54 | 46 | 0.0 | 0.0 | 0.00 | 0.00 | 0.00 | 82 | 1017.8 |
| 20260506060524 | 54 | 46 | 0.0 | 1.7 | 0.00 | 0.00 | 0.00 | 82 | 1017.8 |
| 20260506051021 | 55 | 52 | 0.0 | 4.3 | 0.00 | 0.00 | 0.00 | 81 | 1017.4 |
| 20260506050521 | 55 | 51 | 0.0 | 3.5 | 0.00 | 0.00 | 0.00 | 81 | 1017.4 |
| 20260506045011 | 55 | 30 | 0.9 | 3.5 | 0.00 | 0.00 | 0.00 | 80 | 1017.3 |
| 20260506044510 | 55 | 348 | 0.0 | 4.3 | 0.00 | 0.00 | 0.00 | 80 | 1017.2 |
| 20260506044016 | 55 | 339 | 0.0 | 6.1 | 0.00 | 0.00 | 0.00 | 80 | 1017.2 |
| 20260506043510 | 55 | 333 | 0.0 | 6.1 | 0.00 | 0.00 | 0.00 | 80 | 1017.2 |
| 20260506043010 | 55 | 69 | 0.0 | 2.6 | 0.00 | 0.00 | 0.00 | 80 | 1017.2 |
| 20260506042511 | 55 | 6 | 0.0 | 2.6 | 0.00 | 0.00 | 0.00 | 80 | 1017.2 |
| 20260506042013 | 55 | 2 | 0.0 | 4.3 | 0.00 | 0.00 | 0.00 | 80 | 1017.1 |
| 20260506041509 | 55 | 37 | 0.9 | 5.2 | 0.00 | 0.00 | 0.00 | 79 | 1017.1 |
| 20260506041012 | 55 | 38 | 0.9 | 5.2 | 0.00 | 0.00 | 0.00 | 79 | 1017.0 |
| 20260506040507 | 56 | 30 | 0.9 | 7.0 | 0.00 | 0.00 | 0.00 | 79 | 1016.9 |
| 20260506040100 | 56 | 50 | 2.6 | 7.8 | 0.00 | 0.00 | 0.00 | 79 | 1016.8 |
| 20260506035551 | 56 | 350 | 0.9 | 9.6 | 0.00 | 0.00 | 0.00 | 79 | 1016.7 |
| 20260506035050 | 56 | 329 | 2.6 | 9.6 | 0.00 | 0.00 | 0.00 | 78 | 1016.6 |
| 20260506034603 | 56 | 310 | 0.9 | 7.0 | 0.00 | 0.00 | 0.00 | 78 | 1016.5 |
| 20260506034049 | 56 | 329 | 0.0 | 7.0 | 0.00 | 0.00 | 0.00 | 77 | 1016.4 |
| 20260506033548 | 56 | 6 | 0.0 | 6.1 | 0.00 | 0.00 | 0.00 | 77 | 1016.3 |
| 20260506033048 | 56 | 39 | 0.9 | 6.1 | 0.00 | 0.00 | 0.00 | 77 | 1016.3 |
| 20260506032547 | 56 | 1 | 0.9 | 6.1 | 0.00 | 0.00 | 0.00 | 76 | 1016.3 |
| 20260506032047 | 57 | 42 | 0.0 | 7.8 | 0.00 | 0.00 | 0.00 | 76 | 1016.2 |
| 20260506031557 | 57 | 346 | 0.0 | 7.8 | 0.00 | 0.00 | 0.00 | 76 | 1016.1 |
| 20260506031147 | 57 | 12 | 0.9 | 7.8 | 0.00 | 0.00 | 0.00 | 76 | 1016.0 |
| 20260506030544 | 57 | 37 | 2.6 | 9.6 | 0.00 | 0.00 | 0.00 | 75 | 1015.9 |
| 20260506030039 | 57 | 59 | 2.6 | 9.6 | 0.00 | 0.00 | 0.00 | 75 | 1015.7 |
| 20260506025538 | 57 | 343 | 0.9 | 10.4 | 0.00 | 0.00 | 0.00 | 74 | 1015.7 |
| 20260506025038 | 57 | 23 | 1.7 | 12.2 | 0.00 | 0.00 | 0.00 | 74 | 1015.7 |
| 20260506024538 | 58 | 71 | 0.9 | 12.2 | 0.00 | 0.00 | 0.00 | 73 | 1015.6 |
| 20260506024038 | 58 | 321 | 2.6 | 9.6 | 0.00 | 0.00 | 0.00 | 72 | 1015.6 |
| 20260506023538 | 58 | 336 | 0.9 | 13.0 | 0.00 | 0.00 | 0.00 | 72 | 1015.6 |
| 20260506023037 | 58 | 345 | 1.7 | 13.0 | 0.00 | 0.00 | 0.00 | 71 | 1015.5 |
| 20260506022537 | 59 | 7 | 1.7 | 8.7 | 0.00 | 0.00 | 0.00 | 71 | 1015.6 |
| 20260506022037 | 59 | 316 | 1.7 | 11.3 | 0.00 | 0.00 | 0.00 | 70 | 1015.5 |
| 20260506021537 | 59 | 42 | 0.9 | 9.6 | 0.00 | 0.00 | 0.00 | 69 | 1015.4 |
| 20260506021036 | 59 | 42 | 2.6 | 9.6 | 0.00 | 0.00 | 0.00 | 69 | 1015.4 |
| 20260506020536 | 59 | 23 | 3.5 | 9.6 | 0.00 | 0.00 | 0.00 | 68 | 1015.4 |
| 20260506020024 | 60 | 356 | 1.7 | 9.6 | 0.00 | 0.00 | 0.00 | 68 | 1015.4 |
| 20260506015525 | 60 | 10 | 1.7 | 9.6 | 0.00 | 0.00 | 0.00 | 67 | 1015.3 |
| 20260506015026 | 60 | 343 | 2.6 | 9.6 | 0.00 | 0.00 | 0.00 | 66 | 1015.2 |
| 20260506014524 | 61 | 3 | 2.6 | 10.4 | 0.00 | 0.00 | 0.00 | 65 | 1015.2 |
| 20260506014024 | 61 | 54 | 2.6 | 8.7 | 0.00 | 0.00 | 0.00 | 65 | 1015.3 |
| 20260506013525 | 61 | 73 | 0.9 | 9.6 | 0.00 | 0.00 | 0.00 | 65 | 1015.3 |
| 20260506013024 | 61 | 331 | 3.5 | 12.2 | 0.00 | 0.00 | 0.00 | 64 | 1015.2 |
| 20260506012524 | 62 | 48 | 4.3 | 13.9 | 0.00 | 0.00 | 0.00 | 64 | 1015.3 |
| 20260506012027 | 62 | 350 | 4.3 | 13.9 | 0.00 | 0.00 | 0.00 | 63 | 1015.2 |
| 20260506011527 | 62 | 356 | 1.7 | 12.2 | 0.00 | 0.00 | 0.00 | 62 | 1015.2 |
| 20260506011023 | 62 | 359 | 4.3 | 12.2 | 0.00 | 0.00 | 0.00 | 62 | 1015.2 |
| 20260506010523 | 63 | 6 | 3.5 | 12.2 | 0.00 | 0.00 | 0.00 | 61 | 1015.1 |
| 20260506010008 | 63 | 3 | 3.5 | 13.0 | 0.00 | 0.00 | 0.00 | 60 | 1015.3 |
| 20260506005503 | 63 | 62 | 3.5 | 13.0 | 0.00 | 0.00 | 0.00 | 60 | 1015.3 |
| 20260506005004 | 64 | 44 | 1.7 | 13.0 | 0.00 | 0.00 | 0.00 | 61 | 1015.2 |
| 20260506004602 | 64 | 8 | 0.9 | 11.3 | 0.00 | 0.00 | 0.00 | 60 | 1015.1 |
| 20260506004001 | 64 | 316 | 2.6 | 10.4 | 0.00 | 0.00 | 0.00 | 60 | 1015.1 |
| 20260506003503 | 64 | 23 | 2.6 | 13.0 | 0.00 | 0.00 | 0.00 | 59 | 1015.2 |
| 20260506003003 | 65 | 54 | 3.5 | 13.0 | 0.00 | 0.00 | 0.00 | 60 | 1015.0 |
| 20260506002500 | 65 | 41 | 1.7 | 9.6 | 0.00 | 0.00 | 0.00 | 61 | 1015.0 |
| 20260506002100 | 65 | 339 | 4.3 | 16.5 | 0.00 | 0.00 | 0.00 | 61 | 1014.9 |
| 20260506001600 | 65 | 359 | 4.3 | 17.4 | 0.00 | 0.00 | 0.00 | 62 | 1014.9 |
| 20260506001059 | 65 | 12 | 3.5 | 10.4 | 0.00 | 0.00 | 0.00 | 61 | 1014.9 |
| 20260506000600 | 65 | 14 | 2.6 | 13.0 | 0.00 | 0.00 | 0.00 | 61 | 1014.9 |
| 20260506000052 | 65 | 350 | 1.7 | 13.0 | 0.00 | 0.00 | 0.00 | 60 | 1014.9 |
| 20260505235552 | 65 | 50 | 1.7 | 13.9 | 0.00 | 0.00 | 0.00 | 59 | 1014.8 |
| 20260505235052 | 65 | 321 | 5.2 | 14.8 | 0.00 | 0.00 | 0.00 | 59 | 1014.8 |
| 20260505234558 | 65 | 66 | 4.3 | 13.0 | 0.00 | 0.00 | 0.00 | 59 | 1014.8 |
| 20260505234052 | 66 | 34 | 1.7 | 9.6 | 0.00 | 0.00 | 0.00 | 59 | 1014.9 |
| 20260505233551 | 66 | 64 | 4.3 | 12.2 | 0.00 | 0.00 | 0.00 | 58 | 1014.9 |
| 20260505233105 | 66 | 355 | 1.7 | 8.7 | 0.00 | 0.00 | 0.00 | 59 | 1015.0 |
| 20260505232551 | 66 | 8 | 2.6 | 10.4 | 0.00 | 0.00 | 0.00 | 59 | 1014.8 |
| 20260505232053 | 66 | 38 | 1.7 | 8.7 | 0.00 | 0.00 | 0.00 | 58 | 1014.9 |
| 20260505231555 | 67 | 26 | 4.3 | 8.7 | 0.00 | 0.00 | 0.00 | 58 | 1014.8 |
| 20260505231050 | 67 | 61 | 0.9 | 8.7 | 0.00 | 0.00 | 0.00 | 57 | 1014.9 |
| 20260505230551 | 67 | 2 | 1.7 | 10.4 | 0.00 | 0.00 | 0.00 | 56 | 1015.0 |
| 20260505230034 | 68 | 360 | 3.5 | 10.4 | 0.00 | 0.00 | 0.00 | 54 | 1015.0 |
| 20260505225535 | 68 | 311 | 0.9 | 7.8 | 0.00 | 0.00 | 0.00 | 55 | 1015.1 |
| 20260505225034 | 68 | 46 | 1.7 | 7.8 | 0.00 | 0.00 | 0.00 | 55 | 1015.0 |
| 20260505224533 | 68 | 12 | 2.6 | 7.8 | 0.00 | 0.00 | 0.00 | 56 | 1015.1 |
| 20260505224035 | 68 | 49 | 1.7 | 10.4 | 0.00 | 0.00 | 0.00 | 56 | 1015.1 |
| 20260505223533 | 68 | 147 | 1.7 | 10.4 | 0.00 | 0.00 | 0.00 | 55 | 1015.2 |
| 20260505223036 | 68 | 325 | 2.6 | 10.4 | 0.00 | 0.00 | 0.00 | 56 | 1015.3 |
| 20260505222533 | 68 | 303 | 0.9 | 14.8 | 0.00 | 0.00 | 0.00 | 57 | 1015.2 |
| 20260505222031 | 67 | 167 | 3.5 | 14.8 | 0.00 | 0.00 | 0.00 | 56 | 1015.3 |
| 20260505221531 | 67 | 26 | 2.6 | 9.6 | 0.00 | 0.00 | 0.00 | 56 | 1015.3 |
| 20260505221031 | 67 | 69 | 1.7 | 9.6 | 0.00 | 0.00 | 0.00 | 58 | 1015.4 |
| 20260505220528 | 67 | 339 | 2.6 | 13.9 | 0.00 | 0.00 | 0.00 | 59 | 1015.3 |
| 20260505220021 | 67 | 33 | 3.5 | 13.9 | 0.00 | 0.00 | 0.00 | 59 | 1015.4 |
| 20260505215520 | 67 | 353 | 3.5 | 11.3 | 0.00 | 0.00 | 0.00 | 60 | 1015.5 |
| 20260505215019 | 66 | 344 | 3.5 | 11.3 | 0.00 | 0.00 | 0.00 | 60 | 1015.6 |
| 20260505214518 | 66 | 33 | 0.9 | 13.9 | 0.00 | 0.00 | 0.00 | 60 | 1015.7 |
| 20260505214022 | 66 | 318 | 3.5 | 13.9 | 0.00 | 0.00 | 0.00 | 59 | 1015.7 |
| 20260505213518 | 66 | 35 | 2.6 | 9.6 | 0.00 | 0.00 | 0.00 | 59 | 1015.7 |
| 20260505213017 | 66 | 351 | 3.5 | 8.7 | 0.00 | 0.00 | 0.00 | 60 | 1015.9 |
| 20260505212518 | 65 | 301 | 1.7 | 8.7 | 0.00 | 0.00 | 0.00 | 60 | 1015.8 |
| 20260505212018 | 65 | 23 | 0.0 | 7.0 | 0.00 | 0.00 | 0.00 | 61 | 1015.8 |
| 20260505211518 | 65 | 36 | 0.0 | 9.6 | 0.00 | 0.00 | 0.00 | 62 | 1015.7 |
| 20260505211017 | 64 | 308 | 2.6 | 9.6 | 0.00 | 0.00 | 0.00 | 64 | 1015.8 |
| 20260505210515 | 64 | 307 | 0.9 | 8.7 | 0.00 | 0.00 | 0.00 | 64 | 1015.8 |
| 20260505210010 | 64 | 334 | 0.9 | 9.6 | 0.00 | 0.00 | 0.00 | 64 | 1015.8 |
| 20260505205514 | 64 | 311 | 4.3 | 10.4 | 0.00 | 0.00 | 0.00 | 63 | 1015.8 |
| 20260505205011 | 64 | 360 | 2.6 | 13.0 | 0.00 | 0.00 | 0.00 | 62 | 1015.7 |
| 20260505204508 | 65 | 290 | 6.1 | 13.0 | 0.00 | 0.00 | 0.00 | 62 | 1015.7 |
| 20260505204009 | 65 | 316 | 6.1 | 13.0 | 0.00 | 0.00 | 0.00 | 61 | 1015.7 |
| 20260505203511 | 65 | 302 | 6.1 | 16.5 | 0.00 | 0.00 | 0.00 | 61 | 1015.8 |
| 20260505203008 | 65 | 273 | 7.0 | 16.5 | 0.00 | 0.00 | 0.00 | 63 | 1015.7 |
| 20260505202508 | 64 | 356 | 5.2 | 16.5 | 0.00 | 0.00 | 0.00 | 64 | 1015.6 |
| 20260505202008 | 64 | 306 | 5.2 | 15.6 | 0.00 | 0.00 | 0.00 | 64 | 1015.7 |
| 20260505201507 | 64 | 291 | 7.8 | 17.4 | 0.00 | 0.00 | 0.00 | 64 | 1015.7 |
| 20260505201009 | 64 | 308 | 8.7 | 20.9 | 0.00 | 0.00 | 0.00 | 63 | 1015.7 |
| 20260505200514 | 64 | 329 | 9.6 | 20.9 | 0.00 | 0.00 | 0.00 | 64 | 1015.8 |
| 20260505200100 | 64 | 304 | 6.1 | 16.5 | 0.00 | 0.00 | 0.00 | 63 | 1015.8 |
| 20260505195556 | 64 | 7 | 4.3 | 13.0 | 0.00 | 0.00 | 0.00 | 64 | 1015.8 |
| 20260505195056 | 64 | 333 | 6.1 | 13.9 | 0.00 | 0.00 | 0.00 | 63 | 1015.8 |
| 20260505194609 | 64 | 300 | 7.0 | 13.9 | 0.00 | 0.00 | 0.00 | 62 | 1015.9 |
| 20260505194055 | 64 | 292 | 3.5 | 14.8 | 0.00 | 0.00 | 0.00 | 64 | 1015.8 |
| 20260505193559 | 64 | 337 | 3.5 | 14.8 | 0.00 | 0.00 | 0.00 | 63 | 1015.8 |
| 20260505193055 | 65 | 293 | 5.2 | 13.9 | 0.00 | 0.00 | 0.00 | 63 | 1015.7 |
| 20260505192555 | 65 | 254 | 7.8 | 15.6 | 0.00 | 0.00 | 0.00 | 61 | 1015.7 |
| 20260505192055 | 66 | 314 | 7.8 | 15.6 | 0.00 | 0.00 | 0.00 | 61 | 1015.8 |